{"data":{"norad_id":48880,"intl_designator":"2021-059B","name":"STARLINK-3004","alt_names":[],"object_type":"PAYLOAD","status":"ACTIVE","operator":null,"country":"US","launch_date":"2021-06-30","launch_site_code":"AFETR","launch_vehicle":null,"mission":null,"orbit_class":"UNKNOWN","rcs_meters":null,"size_class":null,"mass_kg":null,"dimensions":null,"purposes":["comms"],"wikipedia_slug":null,"has_3d_model":false,"image_url":null,"decayed_at":null,"tle_current":{"epoch":"2026-05-25T02:19:31.952640Z","epoch_age_seconds":65984,"freshness":"FRESH","line1":"1 48880U 21059B   26145.09689760  .01261340  76198-3  35069-2 0  9994","line2":"2 48880  97.6611 274.0524 0001749  63.3487 296.7966 15.93913786270484","mean_motion":15.93913786,"eccentricity":0.0001749,"inclination_deg":97.6611,"raan_deg":274.0524,"arg_perigee_deg":63.3487,"mean_anomaly_deg":296.7966,"bstar":0.0035069,"rev_number":27048,"period_min":90.343656767895,"perigee_km":290.1762338861,"apogee_km":292.50921789421,"semimajor_km":6669.4797258902,"source":"CELESTRAK","updated_at":"2026-05-25T13:38:16.764181Z"}}}